• In Portugal
  • List of Countries
  • For 7 days
  • Water Temperature
  • Satellite Maps
  • Weather Map
  • Weather Widgets
  • user-avatar
    Login

    Hourly Weather La Paz

    Today, 14 November, Wednesday

    Time Temperature Precipitation Wind Pressure Humidity
    00:00 +9°C° 0.3 mm 1 mps 475 mmHg 74%
    01:00 +9°C° 0.3 mm 1 mps 475 mmHg 74%
    02:00 +9°C° 0 mm 1 mps 474 mmHg 73%
    03:00 +9°C° 0 mm 1 mps 474 mmHg 71%
    04:00 +8°C° 0 mm 1 mps 474 mmHg 70%
    05:00 +9°C° 0 mm 1 mps 474 mmHg 64%
    06:00 +10°C° 0 mm 1 mps 475 mmHg 58%
    07:00 +10°C° 0 mm 1 mps 476 mmHg 52%
    08:00 +11°C° 0 mm 1 mps 477 mmHg 50%
    09:00 +13°C° 0 mm 1 mps 477 mmHg 48%
    10:00 +14°C° 0 mm 2 mps 478 mmHg 46%
    11:00 +14°C° 0.4 mm 2 mps 478 mmHg 48%
    12:00 +15°C° 0.4 mm 2 mps 477 mmHg 50%
    13:00 +15°C° 0.4 mm 2 mps 477 mmHg 52%
    14:00 +13°C° 0.8 mm 3 mps 476 mmHg 55%
    15:00 +13°C° 0.8 mm 3 mps 476 mmHg 59%
    16:00 +12°C° 0.8 mm 3 mps 475 mmHg 63%
    17:00 +11°C° 0.9 mm 3 mps 475 mmHg 68%
    18:00 +10°C° 0.9 mm 3 mps 475 mmHg 73%
    19:00 +8°C° 0.9 mm 4 mps 475 mmHg 79%
    20:00 +9°C° 0.4 mm 3 mps 475 mmHg 80%
    21:00 +9°C° 0.4 mm 3 mps 475 mmHg 82%
    22:00 +8°C° 0.4 mm 2 mps 475 mmHg 84%
    23:00 +8°C° 0.2 mm 2 mps 475 mmHg 85%

    Tomorrow, 15 November, Thursday

    Time Temperature Precipitation Wind Pressure Humidity
    00:00 +8°C° 0.2 mm 2 mps 474 mmHg 86%
    01:00 +7°C° 0.2 mm 2 mps 474 mmHg 87%
    02:00 +8°C° 0.1 mm 1 mps 474 mmHg 87%
    03:00 +8°C° 0.1 mm 1 mps 474 mmHg 86%
    04:00 +8°C° 0.1 mm 1 mps 474 mmHg 86%
    05:00 +8°C° 0.1 mm 1 mps 474 mmHg 83%
    06:00 +9°C° 0.1 mm 1 mps 475 mmHg 80%
    07:00 +9°C° 0.1 mm 1 mps 475 mmHg 76%
    08:00 +10°C° 0.2 mm 2 mps 476 mmHg 72%
    09:00 +12°C° 0.2 mm 2 mps 477 mmHg 67%
    10:00 +13°C° 0.2 mm 2 mps 477 mmHg 62%
    11:00 +12°C° 0.3 mm 3 mps 477 mmHg 62%
    12:00 +12°C° 0.3 mm 3 mps 476 mmHg 62%
    13:00 +12°C° 0.3 mm 3 mps 476 mmHg 62%
    14:00 +12°C° 0.3 mm 3 mps 475 mmHg 64%
    15:00 +12°C° 0.3 mm 3 mps 475 mmHg 67%
    16:00 +11°C° 0.3 mm 4 mps 474 mmHg 69%
    17:00 +10°C° 0.1 mm 4 mps 474 mmHg 74%
    18:00 +9°C° 0.1 mm 3 mps 474 mmHg 79%
    19:00 +8°C° 0.1 mm 3 mps 474 mmHg 84%
    20:00 +8°C° 0.1 mm 3 mps 474 mmHg 84%
    21:00 +8°C° 0.1 mm 2 mps 474 mmHg 84%
    22:00 +8°C° 0.1 mm 1 mps 475 mmHg 85%
    23:00 +8°C° 0.1 mm 1 mps 474 mmHg 84%

    Day after tomorrow, 16 November, Friday

    Time Temperature Precipitation Wind Pressure Humidity
    00:00 +8°C° 0.1 mm 1 mps 474 mmHg 84%
    01:00 +7°C° 0.1 mm 2 mps 473 mmHg 84%
    02:00 +8°C° 0 mm 1 mps 473 mmHg 84%
    03:00 +8°C° 0 mm 1 mps 473 mmHg 84%
    04:00 +7°C° 0 mm 1 mps 473 mmHg 84%
    05:00 +8°C° 0 mm 1 mps 474 mmHg 79%
    06:00 +9°C° 0 mm 1 mps 475 mmHg 74%
    07:00 +10°C° 0 mm 1 mps 475 mmHg 69%
    08:00 +11°C° 0.1 mm 1 mps 476 mmHg 65%
    09:00 +13°C° 0.1 mm 2 mps 477 mmHg 61%
    10:00 +13°C° 0.1 mm 3 mps 478 mmHg 56%
    11:00 +13°C° 0.2 mm 3 mps 477 mmHg 59%
    12:00 +12°C° 0.2 mm 3 mps 476 mmHg 61%
    13:00 +12°C° 0.2 mm 4 mps 476 mmHg 63%
    14:00 +12°C° 0.3 mm 4 mps 475 mmHg 66%
    15:00 +11°C° 0.3 mm 4 mps 475 mmHg 68%
    16:00 +11°C° 0.3 mm 4 mps 474 mmHg 70%
    17:00 +10°C° 0 mm 4 mps 474 mmHg 74%
    18:00 +8°C° 0 mm 4 mps 474 mmHg 79%
    19:00 +8°C° 0 mm 4 mps 474 mmHg 83%
    20:00 +8°C° 0.2 mm 3 mps 475 mmHg 83%
    21:00 +8°C° 0.2 mm 2 mps 475 mmHg 83%
    22:00 +8°C° 0.2 mm 1 mps 475 mmHg 83%
    23:00 +8°C° 0.4 mm 1 mps 474 mmHg 83%

    17 November, Saturday

    Time Temperature Precipitation Wind Pressure Humidity
    00:00 +8°C° 0.4 mm 1 mps 474 mmHg 83%
    01:00 +8°C° 0.4 mm 1 mps 473 mmHg 83%
    02:00 +8°C° 0.1 mm 1 mps 473 mmHg 83%
    03:00 +8°C° 0.1 mm 1 mps 473 mmHg 84%
    04:00 +7°C° 0.1 mm 1 mps 473 mmHg 84%
    05:00 +8°C° 0.1 mm 1 mps 474 mmHg 80%
    06:00 +9°C° 0.1 mm 1 mps 475 mmHg 76%
    07:00 +10°C° 0.1 mm 1 mps 476 mmHg 72%
    08:00 +11°C° 0.2 mm 1 mps 476 mmHg 67%
    09:00 +12°C° 0.2 mm 2 mps 477 mmHg 63%
    10:00 +14°C° 0.2 mm 2 mps 477 mmHg 58%
    11:00 +13°C° 0.6 mm 3 mps 477 mmHg 59%
    12:00 +13°C° 0.6 mm 3 mps 476 mmHg 60%
    13:00 +13°C° 0.6 mm 3 mps 476 mmHg 62%
    14:00 +12°C° 1 mm 3 mps 475 mmHg 65%
    15:00 +12°C° 1 mm 3 mps 474 mmHg 68%
    16:00 +11°C° 1 mm 3 mps 474 mmHg 71%
    17:00 +10°C° 0.7 mm 3 mps 474 mmHg 76%
    18:00 +10°C° 0.7 mm 3 mps 474 mmHg 80%
    19:00 +9°C° 0.7 mm 3 mps 474 mmHg 84%
    20:00 +9°C° 0.5 mm 3 mps 474 mmHg 85%
    21:00 +8°C° 0.5 mm 2 mps 475 mmHg 86%
    22:00 +8°C° 0.5 mm 2 mps 475 mmHg 86%
    23:00 +9°C° 0.6 mm 1 mps 474 mmHg 87%

    18 November, Sunday

    Time Temperature Precipitation Wind Pressure Humidity
    00:00 +8°C° 0.6 mm 1 mps 474 mmHg 87%
    01:00 +8°C° 0.6 mm 1 mps 473 mmHg 87%
    02:00 +8°C° 0.8 mm 1 mps 473 mmHg 86%
    03:00 +8°C° 0.8 mm 1 mps 473 mmHg 85%
    04:00 +8°C° 0.8 mm 1 mps 473 mmHg 84%
    05:00 +9°C° 0.7 mm 1 mps 474 mmHg 82%
    06:00 +8°C° 0.7 mm 0 mps 474 mmHg 79%
    07:00 +8°C° 0.7 mm 0 mps 475 mmHg 77%
    08:00 +10°C° 0.4 mm 1 mps 475 mmHg 72%
    09:00 +11°C° 0.4 mm 1 mps 476 mmHg 68%
    10:00 +12°C° 0.4 mm 2 mps 476 mmHg 64%
    11:00 +13°C° 0.3 mm 2 mps 476 mmHg 64%
    12:00 +12°C° 0.3 mm 3 mps 475 mmHg 63%
    13:00 +12°C° 0.3 mm 3 mps 475 mmHg 63%
    14:00 +12°C° 0.4 mm 3 mps 475 mmHg 66%
    15:00 +12°C° 0.4 mm 4 mps 474 mmHg 69%
    16:00 +11°C° 0.4 mm 4 mps 474 mmHg 71%
    17:00 +10°C° 0.1 mm 4 mps 474 mmHg 76%
    18:00 +8°C° 0.1 mm 4 mps 474 mmHg 81%
    19:00 +7°C° 0.1 mm 4 mps 474 mmHg 85%
    20:00 +7°C° 0.1 mm 4 mps 475 mmHg 85%
    21:00 +8°C° 0.1 mm 3 mps 475 mmHg 85%
    22:00 +7°C° 0.1 mm 3 mps 475 mmHg 85%
    23:00 +7°C° 0.3 mm 2 mps 474 mmHg 85%

    19 November, Monday

    Time Temperature Precipitation Wind Pressure Humidity
    00:00 +7°C° 0.3 mm 2 mps 474 mmHg 86%
    01:00 +8°C° 0.3 mm 1 mps 474 mmHg 86%
    02:00 +8°C° 0.6 mm 1 mps 474 mmHg 87%
    03:00 +7°C° 0.6 mm 1 mps 474 mmHg 87%
    04:00 +7°C° 0.6 mm 1 mps 474 mmHg 88%
    05:00 +8°C° 1 mm 1 mps 474 mmHg 86%
    06:00 +8°C° 1 mm 1 mps 475 mmHg 85%
    07:00 +8°C° 1 mm 1 mps 475 mmHg 84%
    08:00 +8°C° 0.9 mm 2 mps 475 mmHg 81%
    09:00 +8°C° 0.9 mm 2 mps 476 mmHg 78%
    10:00 +9°C° 0.9 mm 3 mps 476 mmHg 75%
    11:00 +10°C° 0.4 mm 3 mps 476 mmHg 72%
    12:00 +10°C° 0.4 mm 3 mps 476 mmHg 70%
    13:00 +11°C° 0.4 mm 4 mps 476 mmHg 67%
    14:00 +10°C° 0.2 mm 4 mps 475 mmHg 70%
    15:00 +10°C° 0.2 mm 4 mps 474 mmHg 73%
    16:00 +8°C° 0.2 mm 4 mps 474 mmHg 77%
    17:00 +8°C° 0.1 mm 4 mps 474 mmHg 80%
    18:00 +8°C° 0.1 mm 3 mps 474 mmHg 84%
    19:00 +7°C° 0.1 mm 3 mps 474 mmHg 88%
    20:00 +7°C° 0.2 mm 2 mps 475 mmHg 89%
    21:00 +7°C° 0.2 mm 2 mps 475 mmHg 89%
    22:00 +8°C° 0.2 mm 1 mps 475 mmHg 89%
    23:00 +8°C° 0.5 mm 1 mps 475 mmHg 89%
    Show more